Tracking 18850 objects as of 22-Nov-2017
HD Live streaming from Space Station
objects crossing your sky now

FENGYUN 1C DEB

Track FENGYUN 1C DEB now!
10-day predictions


NORAD ID: 31992
Int'l Code: 1999-025CPV
Perigee: 774.1 km
Apogee: 1,611.3 km
Inclination: 99.2 °
Period: 109.1 minutes
Semi major axis: 7563 km
RCS: 0.0005 m2 (small)
Launch date: May 10, 1999
Source: People's Republic of China (PRC)
Launch site: Taiyaun Space Center, China (TSC)

Note: This is SATELLITE DEBRIS
aabbcc
Your satellite tracking list
Your tracking list is empty




NASA's NSSDC Master Catalog

Two Line Element Set (TLE):
1 31992U 99025CPV 17307.58439124  .00000181  00000-0  24675-3 0  9990
2 31992  99.1983 222.3684 0553474 336.5956  21.0825 13.19776689499903
Source of the keplerian elements: AFSPC